Theta_e
320 320 319 320 323 320 325 326 324 328 332 330 332 335 336 335 335 332 336 337 335 335 334 335 336 336 336 334 333 332 331 334 333 331 329 329 328 328 327 328 328 328 327 327 327 327 327 328 329
319 320 320 314 322 325 325 325 326 328 332 332 332 334 335 338 333 337 338 335 335 336 332 333 334 334 334 334 333 332 332 333 333 331 330 328 328 327 327 327 327 327 327 326 327 327 327 327 326
319 318 317 320 320 324 325 328 329 329 329 329 334 332 334 336 335 337 337 335 336 333 328 331 332 333 333 333 332 331 332 330 332 330 329 328 327 327 327 326 326 326 325 325 326 326 326 326 325
318 317 313 320 324 322 327 328 327 325 326 329 332 336 332 332 334 337 336 336 334 329 327 328 329 329 331 333 331 330 330 329 329 331 329 328 328 326 327 326 326 325 325 325 325 325 325 325 326
317 315 320 321 323 320 325 326 323 326 327 330 331 336 335 333 336 338 336 335 332 328 328 329 329 330 331 331 329 329 329 327 326 327 328 327 327 326 327 326 326 326 325 324 324 321 321 321 322
317 315 322 327 323 319 322 324 324 325 326 330 332 334 334 334 338 337 336 335 331 325 327 328 327 328 331 329 330 329 328 326 326 326 328 327 327 326 327 326 326 325 324 323 319 319 320 320 320
320 318 322 322 321 318 319 317 324 324 325 326 330 333 331 331 337 337 337 335 330 326 328 328 328 329 329 328 330 329 328 326 323 325 326 326 326 326 326 325 325 322 318 317 318 319 320 320 321
315 321 323 321 321 321 321 320 320 325 327 324 329 331 332 331 337 337 337 334 331 326 329 329 329 330 331 330 329 328 327 324 321 324 325 325 325 325 324 323 319 316 316 317 319 320 321 321 321
315 319 324 325 321 321 320 321 319 321 325 330 331 327 328 332 337 336 336 332 329 327 328 331 329 329 329 332 329 327 325 324 321 323 323 322 321 321 321 319 317 316 317 319 321 321 321 321 321
319 319 322 322 319 321 320 321 321 325 327 330 332 330 330 333 335 334 333 331 329 327 328 332 332 327 326 329 331 329 326 324 321 321 320 319 319 318 317 317 316 316 318 321 321 321 322 322 321
322 322 321 319 315 318 319 319 318 323 326 324 328 330 330 333 334 334 333 332 330 327 327 330 332 331 327 327 329 328 328 323 319 319 320 320 320 317 317 317 317 317 319 321 321 321 321 321 322
323 320 322 319 315 315 318 317 319 321 321 319 324 329 330 331 332 334 334 333 332 329 328 326 329 331 330 327 327 327 328 323 321 323 323 322 318 317 317 318 318 320 321 321 321 321 322 322 322
320 320 321 320 317 315 313 315 316 315 314 320 328 330 330 331 332 333 333 334 333 331 330 328 326 327 329 328 325 325 326 325 324 324 325 324 322 317 317 317 320 322 323 323 323 323 323 323 322
323 320 322 317 314 314 314 315 314 315 319 327 329 329 329 329 330 331 332 333 333 332 331 331 330 327 326 327 327 324 322 323 324 325 325 325 325 321 322 322 322 323 323 324 324 324 324 322 322
326 324 320 317 314 315 316 317 316 314 325 328 329 327 328 329 330 331 332 332 333 332 332 332 332 330 329 328 326 325 324 321 323 324 325 325 325 321 322 323 323 324 324 324 324 324 322 322 319
324 323 327 320 316 316 316 321 318 314 326 327 327 326 326 327 329 330 332 333 333 332 333 333 332 331 329 329 328 323 321 322 321 324 325 325 325 323 323 323 323 324 324 324 324 324 322 320 318
318 324 324 324 316 317 317 319 317 315 321 323 325 326 327 326 327 329 331 332 332 331 332 332 333 333 331 330 328 326 325 321 320 322 323 324 324 323 323 322 323 324 324 324 324 323 323 320 319
322 324 323 325 320 317 317 315 316 317 314 314 317 324 326 327 326 328 329 330 331 330 330 331 332 334 332 329 328 327 327 326 325 323 322 322 323 322 323 323 323 324 325 324 324 324 323 321 318
320 322 323 321 320 318 319 317 316 315 314 313 310 311 322 326 327 327 328 329 330 330 330 330 330 332 333 331 329 327 326 326 325 325 323 321 321 321 323 324 324 324 325 324 324 323 323 320 319
324 325 324 322 321 319 321 321 317 315 316 315 315 310 309 315 322 326 327 328 328 329 330 329 329 328 330 332 331 328 326 326 325 325 324 323 322 322 323 323 323 323 324 324 324 323 322 320 319
323 324 324 325 319 317 319 321 320 316 316 316 315 315 312 311 312 321 326 327 328 328 330 330 329 328 329 329 330 330 326 324 325 324 324 323 322 322 324 324 323 323 324 324 324 322 321 320 320
325 321 325 326 322 326 319 326 323 320 319 317 318 315 315 311 310 314 324 327 328 328 328 330 330 328 329 329 328 329 328 325 324 325 325 324 322 322 323 325 324 324 324 324 323 322 320 320 321
323 322 325 323 321 323 325 328 323 319 320 319 319 318 317 314 311 312 321 325 327 328 328 329 330 329 328 328 328 328 328 327 326 326 326 325 324 323 323 324 324 325 325 323 323 321 320 320 320
319 321 321 320 322 328 324 325 322 321 320 319 318 316 316 315 311 310 315 322 326 328 328 328 329 329 329 329 329 328 328 327 327 326 326 325 325 324 324 323 323 325 326 326 323 322 321 321 321
322 324 327 329 328 324 317 321 321 318 318 318 319 317 313 313 311 309 308 318 323 326 328 328 328 328 328 329 328 329 328 327 327 326 325 324 324 324 324 324 324 324 326 326 326 324 323 322 322
323 323 320 324 323 319 317 323 320 318 318 317 314 313 312 311 310 309 308 312 321 324 327 328 327 326 327 328 328 328 328 327 326 325 324 324 324 323 323 323 323 324 325 326 326 326 325 323 323
323 325 315 314 300 313 316 314 313 312 313 312 312 313 313 311 307 308 307 308 314 322 325 327 327 327 325 326 326 326 327 326 325 324 324 324 323 323 323 323 323 323 324 325 326 326 326 325 324
321 320 322 316 315 318 316 315 317 314 317 315 313 313 314 309 306 303 304 307 309 312 319 324 326 327 328 327 324 323 324 324 324 324 324 324 324 324 324 324 324 325 325 325 326 326 325 324 324
321 323 320 318 314 317 315 315 310 315 314 314 314 311 309 307 305 302 302 304 307 311 314 319 324 326 326 327 328 325 324 323 323 323 323 323 323 324 324 325 326 326 326 327 327 326 326 325 324
320 321 322 324 321 314 313 316 309 310 310 312 312 309 306 304 302 302 302 304 305 306 313 319 321 324 326 327 328 328 329 328 327 325 324 324 324 324 325 326 326 327 327 328 327 327 325 323 322
Wind_Speed
17 18 12 5 4 5 1 1 2 3 2 3 2 4 6 3 2 3 1 8 20 18 15 14 14 15 15 15 15 17 16 17 18 17 17 17 17 17 16 16 17 17 17 18 18 18 18 19 21
17 14 5 2 4 3 3 3 4 1 5 7 6 3 5 2 2 6 12 13 21 18 14 15 15 15 16 16 15 17 17 17 17 16 17 16 16 16 15 15 16 16 17 17 17 17 17 19 19
11 7 3 4 3 4 4 3 4 2 7 1 4 5 2 4 3 12 7 21 19 16 14 14 15 15 15 15 16 18 18 15 16 16 14 15 15 15 15 14 15 16 16 16 17 17 17 18 18
8 6 4 4 3 3 5 5 4 6 3 5 4 6 2 1 5 9 22 22 18 15 15 15 14 14 15 17 16 17 17 15 15 15 13 14 14 13 14 14 15 15 15 16 16 16 16 17 16
5 3 3 2 3 1 1 5 6 3 3 3 2 3 2 1 6 21 25 21 19 16 16 15 15 16 16 17 17 17 16 14 13 11 13 13 14 12 13 13 14 14 15 15 15 16 16 15 14
3 3 3 2 3 3 1 5 5 3 3 4 5 5 4 6 22 23 24 21 17 17 17 17 15 18 16 17 17 16 14 11 11 11 13 13 13 12 12 13 13 13 13 14 17 16 16 13 13
3 3 3 3 3 2 4 6 4 5 6 2 9 5 2 6 22 24 22 21 18 17 18 17 17 17 17 16 15 14 13 11 8 11 13 13 14 12 12 13 14 14 15 17 17 16 14 12 10
4 2 3 2 4 4 4 3 4 4 2 5 5 5 4 12 23 25 22 20 18 17 17 17 17 16 16 18 16 15 12 9 9 12 13 13 12 13 12 12 13 15 16 16 15 13 11 10 8
3 3 2 3 4 3 4 4 1 2 5 2 1 6 3 27 27 25 24 21 20 19 18 17 17 17 16 16 16 14 11 10 10 12 11 10 11 11 10 10 10 12 14 14 13 9 8 8 6
3 3 6 2 3 4 5 4 7 4 3 1 0 2 13 28 28 25 20 20 23 22 20 18 19 18 18 18 18 15 12 10 11 12 11 10 9 9 9 10 10 10 10 9 7 6 6 5 5
3 4 3 2 1 4 4 1 1 7 3 6 7 6 13 18 19 22 21 27 29 25 23 21 20 19 19 20 19 17 15 13 12 12 11 11 11 12 11 11 11 11 10 7 5 6 5 4 3
3 5 4 4 1 3 3 4 3 6 5 1 8 16 18 15 18 23 23 26 30 28 26 23 22 22 21 19 20 19 18 16 15 13 12 11 11 12 12 11 11 10 8 7 6 6 5 3 2
4 3 4 2 4 2 4 5 4 6 5 6 10 12 14 15 17 19 23 25 29 29 28 26 24 24 23 22 21 21 21 19 17 16 13 13 9 10 10 9 8 7 7 6 6 5 5 3 1
2 6 4 2 1 2 5 3 2 3 2 6 10 11 12 15 20 17 22 25 28 30 29 28 25 25 24 23 24 23 22 20 20 18 16 16 14 14 13 13 12 11 10 8 6 5 4 4 5
2 1 0 4 3 3 4 5 6 2 4 6 8 7 8 13 19 25 28 28 30 31 29 30 28 27 27 25 24 25 24 23 23 21 19 18 17 17 16 15 14 11 10 8 7 7 6 5 3
3 2 3 3 6 3 6 8 6 7 7 8 9 8 10 11 22 23 29 32 32 31 30 31 30 30 29 29 26 25 25 26 26 24 23 22 20 19 17 16 15 12 12 11 11 11 9 6 4
4 4 5 2 7 3 5 5 7 4 8 9 9 8 9 7 14 26 32 34 33 33 32 31 33 33 33 31 29 26 26 26 26 25 24 24 23 21 20 19 17 16 16 15 13 13 10 8 5
5 3 3 6 6 5 5 8 6 4 6 11 8 8 8 10 17 28 32 35 34 34 34 34 35 36 36 32 32 29 28 28 27 26 26 25 24 24 23 21 19 18 18 18 15 15 13 9 7
5 4 5 3 3 4 7 12 10 11 6 8 8 9 10 13 24 18 30 34 33 34 34 37 37 40 38 38 33 34 34 31 31 29 28 27 26 26 25 24 22 21 21 20 19 17 15 12 11
3 2 3 4 3 4 7 14 10 8 9 9 10 9 12 12 10 17 26 30 36 38 36 36 40 41 43 41 37 35 35 35 33 31 30 28 28 27 27 27 25 24 24 23 23 20 19 15 16
4 6 3 5 2 3 3 12 11 8 12 9 9 11 10 15 15 13 19 30 32 35 43 40 40 42 41 40 35 33 29 30 32 34 33 32 31 30 30 29 29 28 27 27 26 25 24 22 21
11 7 5 4 3 5 5 7 7 6 14 10 16 13 15 13 12 13 18 22 33 41 38 44 41 41 42 40 37 36 32 29 33 34 36 35 34 34 33 33 32 32 31 31 30 28 27 26 25
6 7 11 1 3 5 4 4 5 2 7 10 15 16 15 13 15 14 18 29 37 38 40 43 43 41 42 41 40 40 35 32 33 34 36 36 37 37 37 37 35 35 35 34 33 31 31 30 30
6 5 2 3 2 10 10 9 6 8 7 8 9 12 13 11 11 15 24 27 29 34 35 38 40 43 42 43 43 42 39 36 30 34 35 37 37 38 39 39 39 38 38 38 37 36 36 35 36
8 9 3 6 7 11 6 8 20 6 9 11 14 13 10 10 9 12 10 18 25 30 34 38 40 39 42 44 44 45 43 36 36 37 35 31 35 39 40 40 41 42 42 42 41 39 40 40 40
25 17 5 8 6 5 4 10 7 13 18 17 11 11 8 9 8 10 12 19 25 31 35 34 36 38 39 41 44 44 41 41 41 37 34 36 37 40 38 37 37 42 43 43 43 43 43 43 43
9 14 8 5 2 2 5 8 7 10 11 10 11 10 13 9 7 8 10 20 26 30 34 38 36 37 38 42 41 39 41 41 38 39 37 39 40 40 37 35 35 35 38 42 44 46 46 45 46
13 14 5 1 4 6 6 6 10 6 21 19 12 12 13 8 7 6 4 7 17 25 30 32 34 36 38 38 37 38 40 42 43 38 39 41 41 38 37 36 36 35 36 38 40 42 43 42 47
11 15 8 6 5 5 3 8 8 19 16 18 19 10 9 9 9 6 4 3 3 9 17 22 27 29 31 32 33 35 36 36 37 39 41 41 40 39 38 38 37 37 38 38 39 40 40 40 41
19 13 20 7 13 4 2 11 5 10 8 4 8 8 6 6 8 6 6 8 8 8 10 14 19 22 24 25 27 29 30 32 34 37 37 37 38 37 38 37 37 38 38 38 38 40 41 40 38
Wind_Direction
333 336 335 20 54 62 30 217 284 127 70 323 25 105 132 48 108 194 259 166 157 154 153 149 142 137 131 129 126 117 107 109 102 99 98 98 93 91 88 91 92 92 94 98 101 95 83 85 95
334 344 17 76 87 71 279 272 167 187 147 127 71 76 50 86 90 123 133 161 160 156 157 158 154 145 140 138 133 125 116 113 109 104 104 101 100 96 93 94 97 98 98 102 106 95 87 92 91
335 357 70 85 115 159 188 205 160 101 162 151 101 57 109 128 131 148 172 161 158 153 155 155 154 152 150 145 139 131 124 122 113 111 117 106 107 104 103 101 101 101 100 104 106 97 92 94 90
350 13 37 84 182 215 198 170 188 143 127 61 120 73 39 91 167 177 161 162 158 150 151 149 154 158 154 147 147 141 137 131 120 117 116 116 117 114 114 110 105 103 100 105 106 98 92 93 96
23 55 56 74 266 262 213 159 161 137 120 117 125 149 76 32 157 155 160 164 160 150 152 151 150 148 149 151 152 148 146 148 150 142 126 127 127 123 118 113 109 104 101 107 110 108 102 100 102
24 92 70 222 261 282 193 150 154 154 139 156 81 110 166 135 147 158 164 163 164 154 154 154 155 154 155 157 156 154 156 161 158 148 136 133 134 131 124 115 110 108 108 113 117 114 109 102 101
106 91 192 173 254 245 205 148 172 169 145 188 144 125 242 179 165 169 166 164 162 161 161 159 157 155 156 161 162 162 165 163 166 154 143 145 141 142 138 129 123 120 120 120 123 120 115 107 99
99 73 142 242 213 213 184 114 124 151 127 116 142 176 201 197 176 166 166 168 167 171 174 169 166 165 164 170 172 168 167 166 162 157 156 151 154 155 151 140 131 127 126 125 124 121 116 112 100
112 60 194 209 179 218 188 136 101 86 118 69 30 153 248 161 168 163 163 166 172 175 181 182 177 173 172 171 173 177 174 164 162 160 160 159 157 157 153 141 133 131 131 128 125 125 124 121 114
100 131 218 244 202 197 186 169 162 131 135 146 86 18 154 160 167 157 165 166 178 181 182 187 185 179 178 176 178 180 176 171 166 166 164 163 164 161 157 148 142 141 143 143 141 139 139 125 124
161 177 239 265 133 150 141 128 248 122 229 206 192 165 155 162 168 167 178 179 183 189 184 187 191 191 187 183 183 184 184 179 175 172 171 171 175 175 171 164 161 159 159 160 161 160 149 136 116
164 248 234 295 47 84 168 131 204 191 225 280 188 161 166 177 182 179 183 187 188 191 191 192 195 195 195 194 193 191 189 187 183 184 184 185 186 187 185 181 174 175 178 178 180 174 168 156 136
158 230 266 288 282 240 140 217 229 236 254 89 137 157 178 186 195 195 190 192 195 194 198 196 198 201 201 201 200 199 198 198 198 197 201 204 205 196 194 195 198 203 212 210 203 198 196 196 187
189 208 243 269 241 233 175 239 120 263 144 125 153 181 189 191 196 197 200 197 201 204 203 197 202 207 204 207 208 208 205 207 207 210 213 208 209 208 209 210 214 215 214 216 221 233 235 239 266
215 56 234 236 213 239 136 285 228 205 155 173 187 189 203 206 201 204 206 203 208 206 207 202 206 212 212 211 212 215 213 207 211 216 221 221 220 218 225 224 222 225 229 232 234 237 234 261 292
144 134 229 236 157 250 154 253 246 210 159 207 215 208 207 215 214 213 214 215 215 214 207 207 210 213 218 219 217 218 216 216 215 219 221 224 227 229 230 229 228 227 229 232 230 231 235 230 244
353 191 181 254 199 130 192 253 240 202 184 220 229 224 221 223 233 221 219 221 219 219 214 214 213 215 219 223 222 222 222 221 225 225 225 229 229 229 231 232 234 228 227 231 238 232 235 237 226
188 181 193 194 210 200 234 252 278 256 192 229 234 229 219 226 229 225 222 224 224 223 222 223 219 218 218 222 225 228 226 227 229 231 231 231 230 231 233 234 233 232 233 232 235 231 230 238 225
152 169 175 219 263 196 237 250 247 260 246 243 239 228 228 226 239 229 230 227 227 226 226 227 225 220 218 218 220 226 227 230 229 232 235 235 234 232 233 236 235 234 236 237 237 234 232 225 201
160 206 219 296 272 174 284 268 242 238 248 233 227 227 231 235 229 226 225 224 222 223 224 226 226 224 223 221 221 225 227 232 233 235 237 239 238 238 237 238 239 237 237 238 232 232 234 232 215
196 177 189 206 317 220 279 272 264 241 237 240 234 226 220 222 227 226 210 217 220 219 222 224 226 225 225 224 221 225 228 235 235 236 238 238 238 240 239 240 240 239 238 237 234 234 235 234 224
228 170 205 219 166 227 160 280 247 237 244 236 247 226 231 226 227 226 213 211 213 224 221 224 227 224 226 225 218 219 220 224 231 234 239 240 238 239 239 239 241 240 241 240 239 239 240 236 240
206 159 209 245 277 339 217 275 268 254 256 246 245 240 231 224 222 225 210 214 217 221 219 222 224 226 226 224 221 222 222 228 233 237 241 241 241 240 241 241 241 242 242 244 242 241 240 241 241
130 94 91 73 130 255 223 216 205 213 207 241 249 248 238 225 214 225 222 220 220 220 216 217 219 225 225 226 225 224 223 223 227 234 238 242 244 244 243 244 244 245 245 246 246 245 245 246 249
174 159 186 199 211 244 182 199 245 231 236 241 251 248 243 236 208 215 212 206 212 212 214 216 218 220 224 225 226 228 229 226 228 233 236 235 241 245 248 246 245 246 248 249 250 250 249 249 248
197 185 170 194 204 258 92 232 244 211 230 244 236 252 269 256 226 214 215 211 209 211 211 211 214 219 221 225 229 231 232 232 235 236 233 241 242 249 254 254 252 250 251 251 252 252 254 254 253
188 208 187 99 64 50 218 282 288 250 262 260 243 234 246 247 258 232 221 220 216 216 215 216 216 221 225 228 230 230 233 234 234 238 242 247 250 253 256 257 258 256 255 254 253 254 255 254 256
184 179 183 140 165 245 255 264 236 233 223 231 244 224 234 229 240 235 204 210 222 226 227 224 224 225 228 233 232 234 236 239 242 240 245 249 252 254 256 257 258 259 260 260 258 256 256 254 256
188 194 197 182 173 196 258 254 209 217 216 232 232 208 210 215 219 211 195 155 160 212 218 222 223 225 229 232 236 236 238 241 243 244 248 251 255 256 258 259 260 260 260 261 260 261 259 258 261
208 205 203 213 218 222 178 257 242 235 251 286 233 204 199 199 197 186 179 163 156 158 178 203 216 223 231 235 237 240 243 244 244 246 250 253 255 257 259 260 259 261 262 263 262 263 261 258 260